Regional Weather Roundup
Issued by NWS

Home | Current Version | Previous Version | Graphics & Text | Print | Product List | Glossary On
Versions: 1 2 3 4 5 6 7 8 9 10 11 12 13 14 15 16 17 18 19 20 21 22 23 24 25 26 27
000
ASUS45 KSLC 300210
RWRUT

UTAH REGIONAL WEATHER ROUNDUP
NATIONAL WEATHER SERVICE SALT LAKE CITY UT
800 PM MDT MON AUG 29 2016

UTZ001>011-023>025-300300-

NORTHERN UTAH

CITY           SKY/WX    TMP DP  RH WIND       PRES   REMARKS
BRIGHAM CITY     N/A     86  32  14 CALM      30.11S
HILL AFB       MOCLDY    83  38  20 W6        30.16R
LOGAN          CLOUDY    81  40  23 CALM      30.12S
OGDEN          MOCLDY    82  38  20 SW6       30.12S
PROVO AIRPORT  PTCLDY   N/A N/A N/A NW12      30.14R
SALT LAKE CITY MOCLDY    84  38  19 W7        30.11R
VERNAL         CLEAR     77  35  21 S6        30.18R
WENDOVER       CLEAR     84  32  15 S5        30.12S
HEBER CITY     MOCLDY    77  34  20 S3        30.20S
WEST JORDAN    PTCLDY    82  32  16 W5        30.15S

$$

UTZ012>022-026-027-300300-

SOUTHERN/CENTRAL UTAH

CITY           SKY/WX    TMP DP  RH WIND       PRES   REMARKS
BLANDING       PTCLDY    73  40  31 E3        30.31S
BRYCE CANYON   PTCLDY    64  42  44 S5        30.37S
CEDAR CITY     NOT AVBL
DELTA          CLEAR     82  25  12 W7        30.13S
MILFORD        NOT AVBL
MOAB/CYNLANDS  CLEAR     86  38  18 NE15      30.10R
PRICE          PTCLDY    80  25  13 NE8       30.22R
ST GEORGE      MOCLDY    93  39  15 S7        29.97S

$$

REGIONAL REPORTS     COLORADO/ARIZONA

CITY           SKY/WX    TMP DP  RH WIND       PRES   REMARKS
CRAIG, CO      CLOUDY    68  38  33 E6        30.29R
GRAND JUNCTION CLOUDY    77  45  32 SE15      30.19R
RIFLE          CLOUDY    70  46  42 E17       30.27R
MONTROSE       LGT RAIN  66  53  63 S6        30.32R
CORTEZ         CLOUDY    67  52  58 SE8       30.26R
PAGE, AZ       CLEAR     86  34  15 S5        30.09S
GRAND CANYON   CLEAR     71  38  29 NE6       30.30S
KINGMAN        CLEAR     91  43  18 N7        30.00S
FLAGSTAFF      CLEAR     65  44  46 CALM      30.31R

$$

REGIONAL REPORTS    NEVADA/IDAHO/WYOMING

CITY           SKY/WX    TMP DP  RH WIND       PRES   REMARKS
LAS VEGAS, NV  PTCLDY   101  28   7 N3        29.89S HX  94
ELY            PTCLDY    77  22  13 SE7       30.23S
ELKO           MOCLDY    87  20   8 NW9       30.13F
POCATELLO, ID  PTCLDY    81  33  17 E5        30.14S
BURLEY         PTCLDY    73  54  51 SE3       30.08S
EVANSTON, WY   CLEAR     73  21  14 E6        30.34S
ROCK SPRINGS   CLEAR     71  22  15 NE7       30.32R

$$




USA.gov is the U.S. government's official web portal to all federal, state and local government web resources and services.